,,,PA_Meas_PMT16A,,PR_Meas_QMR101_102,,RH_Meas_QMH101,,SR_Meas_QMS101,,TA_Meas_QMH101,,GenWind,,GenWind,
date,time,status,PA,status,PR,status,RH,status,SR,status,TA,status,DirAvg,status,SpdAvg,
2010-04-22, 00:00:04,VALID,1004.95,VALID,0,VALID,93.1486,VALID,0,VALID,25.0098,VALID,355,VALID,0.119922,
2010-04-22, 00:01:04,VALID,1004.93,VALID,0,VALID,93.2783,VALID,0,VALID,24.9885,VALID,355,VALID,0.118359,
2010-04-22, 00:02:04,VALID,1004.91,VALID,0,VALID,93.4309,VALID,0,VALID,24.9495,VALID,355,VALID,0.125781,
2010-04-22, 00:03:04,VALID,1004.92,VALID,0,VALID,93.5224,VALID,0,VALID,24.9495,VALID,355,VALID,0.0105469,
2010-04-22, 00:04:04,VALID,1004.93,VALID,0,VALID,93.553,VALID,0,VALID,24.9087,VALID,355,VALID,0,
2010-04-22, 00:05:04,VALID,1004.93,VALID,0,VALID,93.5606,VALID,0,VALID,24.9106,VALID,355,VALID,0,
2010-04-22, 00:06:04,VALID,1004.94,VALID,0,VALID,93.614,VALID,0,VALID,24.9106,VALID,355,VALID,0,
2010-04-22, 00:07:04,VALID,1004.95,VALID,0,VALID,93.5987,VALID,0,VALID,24.8697,VALID,355,VALID,0,
2010-04-22, 00:08:04,VALID,1004.95,VALID,0,VALID,93.6369,VALID,0,VALID,24.9106,VALID,355,VALID,0,
2010-04-22, 00:09:04,VALID,1004.97,VALID,0,VALID,93.7971,VALID,0,VALID,24.93,VALID,355,VALID,0,
2010-04-22, 00:10:04,VALID,1004.96,VALID,0,VALID,93.9497,VALID,0,VALID,24.93,VALID,355,VALID,0.483594,
2010-04-22, 00:11:04,VALID,1004.95,VALID,0,VALID,93.9954,VALID,0,VALID,24.93,VALID,355,VALID,0.453125,
2010-04-22, 00:12:04,VALID,1004.92,VALID,0,VALID,94.0641,VALID,0,VALID,24.93,VALID,355,VALID,0.244531,
2010-04-22, 00:13:04,VALID,1004.9,VALID,0,VALID,94.0031,VALID,0,VALID,24.9106,VALID,355,VALID,0.367578,
2010-04-22, 00:14:04,VALID,1004.9,VALID,0,VALID,93.9039,VALID,0,VALID,24.8911,VALID,355,VALID,0.189844,
2010-04-22, 00:15:04,VALID,1004.9,VALID,0,VALID,93.82,VALID,0,VALID,24.8911,VALID,355,VALID,0.263281,
2010-04-22, 00:16:04,VALID,1004.91,VALID,0,VALID,93.7818,VALID,0,VALID,24.8911,VALID,355,VALID,0.339453,
2010-04-22, 00:17:04,VALID,1004.91,VALID,0,VALID,93.8963,VALID,0,VALID,24.9106,VALID,355,VALID,0.151953,
2010-04-22, 00:18:04,VALID,1004.89,VALID,0,VALID,93.9878,VALID,0,VALID,24.93,VALID,355,VALID,0.251172,
2010-04-22, 00:19:04,VALID,1004.86,VALID,0,VALID,93.9649,VALID,0,VALID,24.9495,VALID,355,VALID,0.120312,
2010-04-22, 00:20:04,VALID,1004.85,VALID,0,VALID,93.9344,VALID,0,VALID,24.969,VALID,355,VALID,0,
2010-04-22, 00:21:04,VALID,1004.84,VALID,0,VALID,93.8352,VALID,0,VALID,24.969,VALID,355,VALID,0,
2010-04-22, 00:22:04,VALID,1004.82,VALID,0,VALID,93.8963,VALID,0,VALID,24.9885,VALID,355,VALID,0,
2010-04-22, 00:23:04,VALID,1004.82,VALID,0,VALID,93.942,VALID,0,VALID,25.0079,VALID,355,VALID,0,
2010-04-22, 00:24:04,VALID,1004.82,VALID,0,VALID,93.9344,VALID,0,VALID,25.0079,VALID,355,VALID,0.194531,
2010-04-22, 00:25:04,VALID,1004.79,VALID,0,VALID,93.9191,VALID,0,VALID,25.0079,VALID,355,VALID,0.0207031,
2010-04-22, 00:26:04,VALID,1004.8,VALID,0,VALID,93.8123,VALID,0,VALID,25.0293,VALID,355,VALID,0,
2010-04-22, 00:27:04,VALID,1004.79,VALID,0,VALID,93.7513,VALID,0,VALID,25.0079,VALID,355,VALID,0.124219,
2010-04-22, 00:28:04,VALID,1004.74,VALID,0,VALID,93.7666,VALID,0,VALID,25.0255,VALID,355,VALID,0,
2010-04-22, 00:29:04,VALID,1004.74,VALID,0,VALID,93.7895,VALID,0,VALID,25.0877,VALID,355,VALID,0,
2010-04-22, 00:30:04,VALID,1004.7,VALID,0,VALID,93.7055,VALID,0,VALID,25.1267,VALID,355,VALID,0,
2010-04-22, 00:31:04,VALID,1004.67,VALID,0,VALID,93.7208,VALID,0,VALID,25.1637,VALID,355,VALID,0.323438,
2010-04-22, 00:32:04,VALID,1004.65,VALID,0,VALID,93.7971,VALID,0,VALID,25.2027,VALID,355,VALID,0.430859,
2010-04-22, 00:33:04,VALID,1004.61,VALID,0,VALID,93.6445,VALID,0,VALID,25.2027,VALID,355,VALID,0.429688,
2010-04-22, 00:34:04,VALID,1004.53,VALID,0,VALID,93.4996,VALID,0,VALID,25.2027,VALID,355,VALID,0.403906,
2010-04-22, 00:35:04,VALID,1004.53,VALID,0,VALID,93.469,VALID,0,VALID,25.2027,VALID,355,VALID,0.282422,
2010-04-22, 00:36:04,VALID,1004.49,VALID,0,VALID,93.4004,VALID,0,VALID,25.2027,VALID,355,VALID,0.282422,
2010-04-22, 00:37:04,VALID,1004.47,VALID,0,VALID,93.4538,VALID,0,VALID,25.1832,VALID,355,VALID,0.241797,
2010-04-22, 00:38:04,VALID,1004.44,VALID,0,VALID,93.4767,VALID,0,VALID,25.1832,VALID,355,VALID,0,
2010-04-22, 00:39:04,VALID,1004.44,VALID,0,VALID,93.4996,VALID,0,VALID,25.224,VALID,355,VALID,0,
2010-04-22, 00:40:04,VALID,1004.4,VALID,0,VALID,93.469,VALID,0,VALID,25.1832,VALID,355,VALID,0.128125,
2010-04-22, 00:41:04,VALID,1004.39,VALID,0,VALID,93.6216,VALID,0,VALID,25.2221,VALID,355,VALID,0.259375,
2010-04-22, 00:42:04,VALID,1004.38,VALID,0,VALID,93.6903,VALID,0,VALID,25.2027,VALID,355,VALID,0.327734,
2010-04-22, 00:43:04,VALID,1004.39,VALID,0,VALID,93.6979,VALID,0,VALID,25.2027,VALID,355,VALID,0.239453,
2010-04-22, 00:44:04,VALID,1004.36,VALID,0,VALID,93.7208,VALID,0,VALID,25.224,VALID,355,VALID,0.200781,
2010-04-22, 00:45:04,VALID,1004.36,VALID,0,VALID,93.7971,VALID,0,VALID,25.224,VALID,355,VALID,0.172656,
2010-04-22, 00:46:04,VALID,1004.38,VALID,0,VALID,93.7895,VALID,0,VALID,25.2027,VALID,355,VALID,0.125,
2010-04-22, 00:47:04,VALID,1004.34,VALID,0,VALID,93.8276,VALID,0,VALID,25.1832,VALID,355,VALID,0,
2010-04-22, 00:48:04,VALID,1004.33,VALID,0,VALID,93.7666,VALID,0,VALID,25.1637,VALID,355,VALID,0,
2010-04-22, 00:49:04,VALID,1004.32,VALID,0,VALID,93.5682,VALID,0,VALID,25.1248,VALID,355,VALID,0,
2010-04-22, 00:50:04,VALID,1004.32,VALID,0,VALID,93.2707,VALID,0,VALID,25.1248,VALID,355,VALID,0,
2010-04-22, 00:51:04,VALID,1004.33,VALID,0,VALID,92.9884,VALID,0,VALID,25.1053,VALID,355,VALID,0,
2010-04-22, 00:52:04,VALID,1004.3,VALID,0,VALID,92.7748,VALID,0,VALID,25.1053,VALID,355,VALID,0,
2010-04-22, 00:53:04,VALID,1004.32,VALID,0,VALID,92.195,VALID,0,VALID,25.1267,VALID,355,VALID,0,
2010-04-22, 00:54:04,VALID,1004.31,VALID,0,VALID,91.2262,VALID,0,VALID,25.1248,VALID,355,VALID,0,
2010-04-22, 00:55:04,VALID,1004.31,VALID,0,VALID,90.6235,VALID,0,VALID,25.1267,VALID,355,VALID,0,
2010-04-22, 00:56:04,VALID,1004.34,VALID,0,VALID,91.2719,VALID,0,VALID,25.1248,VALID,355,VALID,0,
2010-04-22, 00:57:04,VALID,1004.35,VALID,0,VALID,91.9204,VALID,0,VALID,25.1442,VALID,355,VALID,0,
2010-04-22, 00:58:04,VALID,1004.35,VALID,0,VALID,92.0653,VALID,0,VALID,25.1637,VALID,355,VALID,0,
2010-04-22, 00:59:04,VALID,1004.35,VALID,0,VALID,92.2789,VALID,0,VALID,25.1832,VALID,355,VALID,0,
2010-04-22, 01:00:04,VALID,1004.36,VALID,0,VALID,92.0577,VALID,0,VALID,25.1813,VALID,355,VALID,0.00429688,
2010-04-22, 01:01:04,VALID,1004.34,VALID,0,VALID,92.3781,VALID,0.100563,VALID,25.1813,VALID,355,VALID,0,
2010-04-22, 01:02:04,VALID,1004.35,VALID,0,VALID,92.5002,VALID,0.100563,VALID,25.1618,VALID,355,VALID,0,
2010-04-22, 01:03:04,VALID,1004.37,VALID,0,VALID,92.6909,VALID,0,VALID,25.1423,VALID,355,VALID,0,
2010-04-22, 01:04:04,VALID,1004.35,VALID,0,VALID,92.9426,VALID,0,VALID,25.1637,VALID,355,VALID,0.174609,
2010-04-22, 01:05:04,VALID,1004.35,VALID,0,VALID,93.1029,VALID,0,VALID,25.1034,VALID,355,VALID,0,
2010-04-22, 01:06:04,VALID,1004.37,VALID,0,VALID,93.2097,VALID,0.100563,VALID,25.1034,VALID,355,VALID,0.220313,
2010-04-22, 01:07:04,VALID,1004.36,VALID,0,VALID,93.3622,VALID,0,VALID,25.045,VALID,355,VALID,0.305078,
2010-04-22, 01:08:04,VALID,1004.33,VALID,0,VALID,93.5377,VALID,0.100563,VALID,25.0469,VALID,355,VALID,0.222656,
2010-04-22, 01:09:04,VALID,1004.32,VALID,0,VALID,93.5682,VALID,0.100563,VALID,25.006,VALID,355,VALID,0.269531,
2010-04-22, 01:10:04,VALID,1004.33,VALID,0,VALID,93.553,VALID,0.100563,VALID,25.0079,VALID,355,VALID,0.321094,
2010-04-22, 01:11:04,VALID,1004.29,VALID,0,VALID,93.5987,VALID,0,VALID,24.9671,VALID,355,VALID,0.25,
2010-04-22, 01:12:04,VALID,1004.26,VALID,0,VALID,93.675,VALID,0.100563,VALID,24.9866,VALID,355,VALID,0.280078,
2010-04-22, 01:13:04,VALID,1004.27,VALID,0,VALID,93.7818,VALID,0.100563,VALID,24.9476,VALID,355,VALID,0.394922,
2010-04-22, 01:14:04,VALID,1004.24,VALID,0,VALID,93.881,VALID,0.100563,VALID,24.9476,VALID,355,VALID,0.340234,
2010-04-22, 01:15:04,VALID,1004.25,VALID,0,VALID,94.0183,VALID,0,VALID,24.93,VALID,355,VALID,0.398438,
2010-04-22, 01:16:04,VALID,1004.25,VALID,0,VALID,94.1099,VALID,0,VALID,24.8503,VALID,355,VALID,0.269141,
2010-04-22, 01:17:04,VALID,1004.22,VALID,0,VALID,94.1785,VALID,0,VALID,24.8735,VALID,355,VALID,0.379297,
2010-04-22, 01:18:04,VALID,1004.22,VALID,0,VALID,94.3082,VALID,0,VALID,24.854,VALID,355,VALID,0.219531,
2010-04-22, 01:19:04,VALID,1004.2,VALID,0,VALID,94.3464,VALID,0,VALID,24.7937,VALID,355,VALID,0.298828,
2010-04-22, 01:20:04,VALID,1004.19,VALID,0,VALID,94.4455,VALID,0,VALID,24.7743,VALID,355,VALID,0.114453,
2010-04-22, 01:21:04,VALID,1004.17,VALID,0,VALID,94.5218,VALID,0,VALID,24.7548,VALID,355,VALID,0.260938,
2010-04-22, 01:22:04,VALID,1004.16,VALID,0,VALID,94.5676,VALID,0,VALID,24.7353,VALID,355,VALID,0.189063,
2010-04-22, 01:23:04,VALID,1004.15,VALID,0,VALID,94.6057,VALID,0,VALID,24.7159,VALID,355,VALID,0.317578,
2010-04-22, 01:24:04,VALID,1004.13,VALID,0,VALID,94.6363,VALID,0,VALID,24.7177,VALID,355,VALID,0.300781,
2010-04-22, 01:25:04,VALID,1004.14,VALID,0,VALID,94.6286,VALID,0,VALID,24.6769,VALID,355,VALID,0.254297,
2010-04-22, 01:26:04,VALID,1004.12,VALID,0,VALID,94.6668,VALID,0,VALID,24.6574,VALID,355,VALID,0.236328,
2010-04-22, 01:27:04,VALID,1004.13,VALID,0,VALID,94.6744,VALID,0,VALID,24.638,VALID,355,VALID,0,
2010-04-22, 01:28:04,VALID,1004.12,VALID,0,VALID,94.7125,VALID,0,VALID,24.6593,VALID,355,VALID,0.0597656,
2010-04-22, 01:29:04,VALID,1004.15,VALID,0,VALID,94.682,VALID,0,VALID,24.6185,VALID,355,VALID,0,
2010-04-22, 01:30:04,VALID,1004.14,VALID,0,VALID,94.6134,VALID,0,VALID,24.5777,VALID,355,VALID,0.000390625,
2010-04-22, 01:31:04,VALID,1004.15,VALID,0,VALID,94.5523,VALID,0,VALID,24.6185,VALID,355,VALID,0.115625,
2010-04-22, 01:32:04,VALID,1004.17,VALID,0,VALID,94.5066,VALID,0,VALID,24.6574,VALID,355,VALID,0,
2010-04-22, 01:33:04,VALID,1004.15,VALID,0,VALID,94.4379,VALID,0,VALID,24.6769,VALID,355,VALID,0.0382813,
2010-04-22, 01:34:04,VALID,1004.12,VALID,0,VALID,94.4532,VALID,0,VALID,24.6769,VALID,355,VALID,0,
2010-04-22, 01:35:04,VALID,1004.15,VALID,0,VALID,94.4303,VALID,0,VALID,24.6574,VALID,355,VALID,0,
2010-04-22, 01:36:04,VALID,1004.16,VALID,0,VALID,94.4608,VALID,0,VALID,24.6574,VALID,355,VALID,0.00195313,
2010-04-22, 01:37:04,VALID,1004.19,VALID,0,VALID,94.5523,VALID,0,VALID,24.6769,VALID,355,VALID,0,
2010-04-22, 01:38:04,VALID,1004.18,VALID,0,VALID,94.5523,VALID,0,VALID,24.6574,VALID,132,VALID,0.475391,
2010-04-22, 01:39:04,VALID,1004.19,VALID,0,VALID,94.621,VALID,0,VALID,24.6964,VALID,132,VALID,0.34375,
2010-04-22, 01:40:04,VALID,1004.17,VALID,0,VALID,94.5371,VALID,0,VALID,24.675,VALID,132,VALID,0.409766,
2010-04-22, 01:41:04,VALID,1004.16,VALID,0,VALID,94.4913,VALID,0,VALID,24.6945,VALID,132,VALID,0.173047,
2010-04-22, 01:42:04,VALID,1004.15,VALID,0,VALID,94.4074,VALID,0,VALID,24.7159,VALID,132,VALID,0.235156,
2010-04-22, 01:43:04,VALID,1004.11,VALID,0,VALID,94.3464,VALID,0,VALID,24.6945,VALID,132,VALID,0.0507813,
2010-04-22, 01:44:04,VALID,1004.13,VALID,0,VALID,94.1251,VALID,0,VALID,24.6964,VALID,132,VALID,0.25,
2010-04-22, 01:45:04,VALID,1004.12,VALID,0,VALID,93.8352,VALID,0,VALID,24.675,VALID,132,VALID,0.146484,
2010-04-22, 01:46:04,VALID,1004.13,VALID,0,VALID,93.3851,VALID,0,VALID,24.6964,VALID,178,VALID,0.488281,
2010-04-22, 01:47:04,VALID,1004.1,VALID,0,VALID,92.9121,VALID,0,VALID,24.7353,VALID,194,VALID,0.374609,
2010-04-22, 01:48:04,VALID,1004.11,VALID,0,VALID,92.4239,VALID,0,VALID,24.7529,VALID,194,VALID,0.135156,
2010-04-22, 01:49:04,VALID,1004.12,VALID,0,VALID,92.3476,VALID,0,VALID,24.8327,VALID,194,VALID,0,
2010-04-22, 01:50:04,VALID,1004.1,VALID,0,VALID,91.5237,VALID,0,VALID,24.8327,VALID,194,VALID,0.151172,
2010-04-22, 01:51:04,VALID,1004.09,VALID,0,VALID,90.6998,VALID,0,VALID,24.8503,VALID,194,VALID,0.0046875,
2010-04-22, 01:52:04,VALID,1004.1,VALID,0,VALID,90.6311,VALID,0,VALID,24.8716,VALID,194,VALID,0.00429688,
2010-04-22, 01:53:04,VALID,1004.1,VALID,0,VALID,91.9509,VALID,0,VALID,24.9106,VALID,194,VALID,0.147656,
2010-04-22, 01:54:04,VALID,1004.08,VALID,0,VALID,92.4163,VALID,0,VALID,24.8697,VALID,194,VALID,0.00585938,
2010-04-22, 01:55:04,VALID,1004.08,VALID,0,VALID,92.7214,VALID,0,VALID,24.8911,VALID,194,VALID,0,
2010-04-22, 01:56:04,VALID,1004.07,VALID,0,VALID,92.6909,VALID,0,VALID,24.8522,VALID,194,VALID,0.168359,
2010-04-22, 01:57:04,VALID,1004.06,VALID,0,VALID,92.7138,VALID,0,VALID,24.8132,VALID,194,VALID,0.101563,
2010-04-22, 01:58:04,VALID,1004.06,VALID,0,VALID,92.7062,VALID,0,VALID,24.7956,VALID,194,VALID,0,
2010-04-22, 01:59:04,VALID,1004.03,VALID,0,VALID,92.729,VALID,0,VALID,24.714,VALID,194,VALID,0.0871094,
2010-04-22, 02:00:04,VALID,1004.03,VALID,0,VALID,92.7977,VALID,0,VALID,24.7159,VALID,194,VALID,0.146094,
2010-04-22, 02:01:04,VALID,1004.04,VALID,0,VALID,92.9198,VALID,0,VALID,24.6556,VALID,194,VALID,0,
2010-04-22, 02:02:04,VALID,1004.04,VALID,0,VALID,93.0723,VALID,0,VALID,24.6361,VALID,194,VALID,0.104687,
2010-04-22, 02:03:04,VALID,1004.04,VALID,0,VALID,93.2859,VALID,0,VALID,24.638,VALID,194,VALID,0,
2010-04-22, 02:04:04,VALID,1004.04,VALID,0,VALID,93.469,VALID,0,VALID,24.5972,VALID,194,VALID,0.204297,
2010-04-22, 02:05:04,VALID,1004.05,VALID,0,VALID,93.614,VALID,0,VALID,24.599,VALID,194,VALID,0.150391,
2010-04-22, 02:06:04,VALID,1004.03,VALID,0,VALID,93.7208,VALID,0,VALID,24.5601,VALID,194,VALID,0.165234,
2010-04-22, 02:07:04,VALID,1004.03,VALID,0,VALID,93.7589,VALID,0,VALID,24.5406,VALID,194,VALID,0.269141,
2010-04-22, 02:08:04,VALID,1004.03,VALID,0,VALID,93.7589,VALID,0,VALID,24.5017,VALID,194,VALID,0.277734,
2010-04-22, 02:09:04,VALID,1003.98,VALID,0,VALID,93.7284,VALID,0,VALID,24.5017,VALID,191,VALID,0.472266,
2010-04-22, 02:10:04,VALID,1003.98,VALID,0,VALID,93.7055,VALID,0,VALID,24.4433,VALID,53,VALID,0.719922,
2010-04-22, 02:11:04,VALID,1003.95,VALID,0,VALID,93.675,VALID,0,VALID,24.4043,VALID,53,VALID,0.599219,
2010-04-22, 02:12:04,VALID,1003.94,VALID,0,VALID,93.8276,VALID,0,VALID,24.3654,VALID,53,VALID,0.509766,
2010-04-22, 02:13:04,VALID,1003.95,VALID,0,VALID,94.0107,VALID,0,VALID,24.3636,VALID,53,VALID,0.530859,
2010-04-22, 02:14:04,VALID,1003.94,VALID,0,VALID,94.1099,VALID,0,VALID,24.3849,VALID,53,VALID,0.349609,
2010-04-22, 02:15:04,VALID,1003.94,VALID,0,VALID,94.1938,VALID,0,VALID,24.3654,VALID,53,VALID,0.43125,
2010-04-22, 02:16:04,VALID,1003.96,VALID,0,VALID,94.2548,VALID,0,VALID,24.3849,VALID,53,VALID,0.36875,
2010-04-22, 02:17:04,VALID,1003.94,VALID,0,VALID,94.2701,VALID,0,VALID,24.3867,VALID,53,VALID,0.394922,
2010-04-22, 02:18:04,VALID,1003.93,VALID,0,VALID,94.3006,VALID,0,VALID,24.3654,VALID,53,VALID,0.285937,
2010-04-22, 02:19:04,VALID,1003.95,VALID,0,VALID,94.3235,VALID,0,VALID,24.3441,VALID,53,VALID,0.161719,
2010-04-22, 02:20:04,VALID,1003.98,VALID,0,VALID,94.3235,VALID,0,VALID,24.3441,VALID,53,VALID,0.129297,
2010-04-22, 02:21:04,VALID,1003.97,VALID,0,VALID,94.3082,VALID,0,VALID,24.3654,VALID,53,VALID,0,
2010-04-22, 02:22:04,VALID,1003.98,VALID,0,VALID,94.3082,VALID,0,VALID,24.3246,VALID,53,VALID,0,
2010-04-22, 02:23:04,VALID,1003.96,VALID,0,VALID,94.3616,VALID,0,VALID,24.3246,VALID,53,VALID,0,
2010-04-22, 02:24:04,VALID,1003.93,VALID,0,VALID,94.4303,VALID,0,VALID,24.3459,VALID,53,VALID,0,
2010-04-22, 02:25:04,VALID,1003.91,VALID,0,VALID,94.4913,VALID,0,VALID,24.3459,VALID,53,VALID,0,
2010-04-22, 02:26:04,VALID,1003.88,VALID,0,VALID,94.5218,VALID,0,VALID,24.3459,VALID,53,VALID,0,
2010-04-22, 02:27:04,VALID,1003.87,VALID,0,VALID,94.5676,VALID,0,VALID,24.3265,VALID,53,VALID,0,
2010-04-22, 02:28:04,VALID,1003.88,VALID,0,VALID,94.5676,VALID,0,VALID,24.307,VALID,53,VALID,0,
2010-04-22, 02:29:04,VALID,1003.88,VALID,0,VALID,94.5905,VALID,0,VALID,24.2662,VALID,53,VALID,0,
2010-04-22, 02:30:04,VALID,1003.87,VALID,0,VALID,94.6363,VALID,0,VALID,24.2468,VALID,53,VALID,0,
2010-04-22, 02:31:04,VALID,1003.87,VALID,0,VALID,94.6668,VALID,0,VALID,24.2291,VALID,53,VALID,0,
2010-04-22, 02:32:04,VALID,1003.85,VALID,0,VALID,94.682,VALID,0,VALID,24.1884,VALID,53,VALID,0,
2010-04-22, 02:33:04,VALID,1003.82,VALID,0,VALID,94.7125,VALID,0,VALID,24.1689,VALID,53,VALID,0,
2010-04-22, 02:34:04,VALID,1003.85,VALID,0,VALID,94.7736,VALID,0,VALID,24.1707,VALID,53,VALID,0.0414063,
2010-04-22, 02:35:04,VALID,1003.84,VALID,0,VALID,94.8346,VALID,0,VALID,24.1494,VALID,53,VALID,0.178516,
2010-04-22, 02:36:04,VALID,1003.84,VALID,0,VALID,94.8804,VALID,0,VALID,24.1105,VALID,53,VALID,0.298828,
2010-04-22, 02:37:04,VALID,1003.85,VALID,0,VALID,94.9338,VALID,0,VALID,24.1105,VALID,53,VALID,0.245312,
2010-04-22, 02:38:04,VALID,1003.81,VALID,0,VALID,95.0101,VALID,0,VALID,24.1105,VALID,53,VALID,0.422266,
2010-04-22, 02:39:04,VALID,1003.79,VALID,0,VALID,95.0864,VALID,0,VALID,24.1105,VALID,53,VALID,0.367188,
2010-04-22, 02:40:04,VALID,1003.78,VALID,0,VALID,95.1627,VALID,0,VALID,24.1318,VALID,53,VALID,0.467187,
2010-04-22, 02:41:04,VALID,1003.77,VALID,0,VALID,95.2161,VALID,0,VALID,24.1123,VALID,53,VALID,0.501172,
2010-04-22, 02:42:04,VALID,1003.78,VALID,0,VALID,95.3,VALID,0,VALID,24.1123,VALID,53,VALID,0.312109,
2010-04-22, 02:43:04,VALID,1003.8,VALID,0,VALID,95.3152,VALID,0,VALID,24.1318,VALID,53,VALID,0.303125,
2010-04-22, 02:44:04,VALID,1003.79,VALID,0,VALID,95.3763,VALID,0,VALID,24.1123,VALID,53,VALID,0.372656,
2010-04-22, 02:45:04,VALID,1003.79,VALID,0,VALID,95.3763,VALID,0,VALID,24.091,VALID,51,VALID,0.526172,
2010-04-22, 02:46:04,VALID,1003.78,VALID,0,VALID,95.3534,VALID,0,VALID,24.091,VALID,51,VALID,0.436719,
2010-04-22, 02:47:04,VALID,1003.79,VALID,0,VALID,95.3229,VALID,0,VALID,24.091,VALID,51,VALID,0.444141,
2010-04-22, 02:48:04,VALID,1003.79,VALID,0,VALID,95.3076,VALID,0,VALID,24.0716,VALID,51,VALID,0.389062,
2010-04-22, 02:49:04,VALID,1003.8,VALID,0,VALID,95.3076,VALID,0,VALID,24.0521,VALID,51,VALID,0.351172,
2010-04-22, 02:50:04,VALID,1003.81,VALID,0,VALID,95.3152,VALID,0,VALID,24.0326,VALID,51,VALID,0.227734,
2010-04-22, 02:51:04,VALID,1003.81,VALID,0,VALID,95.3229,VALID,0,VALID,24.0326,VALID,51,VALID,0.30625,
2010-04-22, 02:52:04,VALID,1003.81,VALID,0,VALID,95.3457,VALID,0,VALID,24.0132,VALID,51,VALID,0.2625,
2010-04-22, 02:53:04,VALID,1003.81,VALID,0,VALID,95.3534,VALID,0,VALID,24.0345,VALID,51,VALID,0.255469,
2010-04-22, 02:54:04,VALID,1003.82,VALID,0,VALID,95.4068,VALID,0,VALID,24.0345,VALID,51,VALID,0.177734,
2010-04-22, 02:55:04,VALID,1003.81,VALID,0,VALID,95.4373,VALID,0,VALID,24.0345,VALID,51,VALID,0.200391,
2010-04-22, 02:56:04,VALID,1003.82,VALID,0,VALID,95.4144,VALID,0,VALID,24.0132,VALID,51,VALID,0.276563,
2010-04-22, 02:57:04,VALID,1003.85,VALID,0,VALID,95.4144,VALID,0,VALID,24.015,VALID,51,VALID,0.387109,
2010-04-22, 02:58:04,VALID,1003.83,VALID,0,VALID,95.4144,VALID,0,VALID,24.015,VALID,51,VALID,0.513281,
2010-04-22, 02:59:04,VALID,1003.79,VALID,0,VALID,95.422,VALID,0,VALID,23.9955,VALID,51,VALID,0.415234,
2010-04-22, 03:00:04,VALID,1003.82,VALID,0,VALID,95.4297,VALID,0,VALID,23.9742,VALID,4,VALID,0.513281,
2010-04-22, 03:01:04,VALID,1003.82,VALID,0,VALID,95.422,VALID,0,VALID,23.9548,VALID,3,VALID,0.646875,
2010-04-22, 03:02:04,VALID,1003.82,VALID,0,VALID,95.4373,VALID,0,VALID,23.9353,VALID,3,VALID,0.626953,
2010-04-22, 03:03:04,VALID,1003.85,VALID,0,VALID,95.4526,VALID,0,VALID,23.9353,VALID,3,VALID,0.636328,
2010-04-22, 03:04:05,VALID,1003.83,VALID,0,VALID,95.4526,VALID,0,VALID,23.8964,VALID,3,VALID,0.667188,
2010-04-22, 03:05:05,VALID,1003.87,VALID,0,VALID,95.4602,VALID,0,VALID,23.8982,VALID,3,VALID,0.589453,
2010-04-22, 03:06:05,VALID,1003.87,VALID,0,VALID,95.4831,VALID,0,VALID,23.8787,VALID,1,VALID,0.581641,
2010-04-22, 03:07:05,VALID,1003.88,VALID,0,VALID,95.4907,VALID,0,VALID,23.8769,VALID,360,VALID,0.579687,
2010-04-22, 03:08:05,VALID,1003.87,VALID,0,VALID,95.5365,VALID,0,VALID,23.8964,VALID,360,VALID,0.498047,
2010-04-22, 03:09:05,VALID,1003.87,VALID,0,VALID,95.5517,VALID,0,VALID,23.9177,VALID,360,VALID,0.516016,
2010-04-22, 03:10:05,VALID,1003.87,VALID,0,VALID,95.567,VALID,0,VALID,23.9159,VALID,359,VALID,0.432813,
2010-04-22, 03:11:05,VALID,1003.87,VALID,0,VALID,95.5517,VALID,0,VALID,23.9353,VALID,359,VALID,0.478906,
2010-04-22, 03:12:05,VALID,1003.89,VALID,0,VALID,95.5365,VALID,0,VALID,23.9566,VALID,324,VALID,0.618359,
2010-04-22, 03:13:05,VALID,1003.89,VALID,0,VALID,95.4907,VALID,0,VALID,23.9742,VALID,280,VALID,0.418359,
2010-04-22, 03:14:05,VALID,1003.91,VALID,0,VALID,95.361,VALID,0,VALID,24.0326,VALID,345,VALID,0.523047,
2010-04-22, 03:15:05,VALID,1003.92,VALID,0,VALID,95.1245,VALID,0,VALID,24.091,VALID,334,VALID,0.239453,
2010-04-22, 03:16:05,VALID,1003.92,VALID,0,VALID,94.7583,VALID,0.100563,VALID,24.1281,VALID,345,VALID,0.336719,
2010-04-22, 03:17:05,VALID,1003.95,VALID,0,VALID,94.3082,VALID,0,VALID,24.2273,VALID,344,VALID,0.144531,
2010-04-22, 03:18:05,VALID,1003.96,VALID,0,VALID,93.8429,VALID,0,VALID,24.3052,VALID,344,VALID,0.394141,
2010-04-22, 03:19:05,VALID,1003.98,VALID,0,VALID,93.2707,VALID,0.100563,VALID,24.3636,VALID,344,VALID,0.443359,
2010-04-22, 03:20:05,VALID,1003.97,VALID,0,VALID,92.7672,VALID,0,VALID,24.422,VALID,344,VALID,0.171484,
2010-04-22, 03:21:05,VALID,1003.99,VALID,0,VALID,92.2484,VALID,0.100563,VALID,24.4804,VALID,344,VALID,0.458984,
2010-04-22, 03:22:05,VALID,1003.98,VALID,0,VALID,91.2338,VALID,0.100563,VALID,24.498,VALID,353,VALID,0.315625,
2010-04-22, 03:23:05,VALID,1003.98,VALID,0,VALID,91.127,VALID,0,VALID,24.5582,VALID,353,VALID,0.137891,
2010-04-22, 03:24:05,VALID,1004.04,VALID,0,VALID,91.0202,VALID,0,VALID,24.5777,VALID,353,VALID,0.145313,
2010-04-22, 03:25:05,VALID,1004.04,VALID,0,VALID,90.8981,VALID,0,VALID,24.5777,VALID,311,VALID,0.496094,
2010-04-22, 03:26:05,VALID,1004.07,VALID,0,VALID,90.4862,VALID,0,VALID,24.6185,VALID,309,VALID,0.312891,
2010-04-22, 03:27:05,VALID,1004.05,VALID,0,VALID,89.7767,VALID,0,VALID,24.6361,VALID,302,VALID,0.592188,
2010-04-22, 03:28:05,VALID,1004.05,VALID,0,VALID,89.2579,VALID,0,VALID,24.7159,VALID,302,VALID,0.00585938,
2010-04-22, 03:29:05,VALID,1004.07,VALID,0,VALID,88.9833,VALID,0,VALID,24.7335,VALID,302,VALID,0,
2010-04-22, 03:30:05,VALID,1004.07,VALID,0,VALID,89.0214,VALID,0,VALID,24.7724,VALID,302,VALID,0,
2010-04-22, 03:31:05,VALID,1004.08,VALID,0,VALID,88.762,VALID,0,VALID,24.8327,VALID,302,VALID,0,
2010-04-22, 03:32:05,VALID,1004.04,VALID,0,VALID,88.9222,VALID,0,VALID,24.8503,VALID,302,VALID,0.196484,
2010-04-22, 03:33:05,VALID,1004.02,VALID,0,VALID,89.4028,VALID,0,VALID,24.8503,VALID,302,VALID,0.462891,
2010-04-22, 03:34:05,VALID,1004.01,VALID,0,VALID,89.4105,VALID,0,VALID,24.7919,VALID,336,VALID,0.528125,
2010-04-22, 03:35:05,VALID,1004.01,VALID,0,VALID,89.8377,VALID,0,VALID,24.7529,VALID,337,VALID,0.426562,
2010-04-22, 03:36:05,VALID,1004.02,VALID,0,VALID,90.4327,VALID,0,VALID,24.714,VALID,338,VALID,0.611719,
2010-04-22, 03:37:05,VALID,1004.02,VALID,0,VALID,91.1804,VALID,0,VALID,24.6556,VALID,338,VALID,0.352734,
2010-04-22, 03:38:05,VALID,1004.01,VALID,0,VALID,91.8975,VALID,0,VALID,24.6166,VALID,342,VALID,0.473828,
2010-04-22, 03:39:05,VALID,1004.02,VALID,0,VALID,92.4086,VALID,0.100563,VALID,24.599,VALID,342,VALID,0.400781,
2010-04-22, 03:40:05,VALID,1003.99,VALID,0,VALID,92.7214,VALID,0.100563,VALID,24.5601,VALID,342,VALID,0.567578,
2010-04-22, 03:41:05,VALID,1004.01,VALID,0,VALID,92.9426,VALID,0,VALID,24.4804,VALID,345,VALID,0.705469,
2010-04-22, 03:42:05,VALID,1003.99,VALID,0,VALID,93.2249,VALID,0,VALID,24.4628,VALID,356,VALID,0.570313,
2010-04-22, 03:43:05,VALID,1003.96,VALID,0,VALID,93.4462,VALID,0,VALID,24.3812,VALID,356,VALID,0.523047,
2010-04-22, 03:44:05,VALID,1003.93,VALID,0,VALID,93.5835,VALID,0,VALID,24.3849,VALID,356,VALID,0.496484,
2010-04-22, 03:45:05,VALID,1003.92,VALID,0,VALID,93.7132,VALID,0,VALID,24.3459,VALID,356,VALID,0.427344,
2010-04-22, 03:46:05,VALID,1003.9,VALID,0,VALID,93.8123,VALID,0,VALID,24.3246,VALID,356,VALID,0.428125,
2010-04-22, 03:47:05,VALID,1003.88,VALID,0,VALID,93.8657,VALID,0.100563,VALID,24.3052,VALID,356,VALID,0.412891,